Regional Weather Roundup
Issued by NWS

Home | Current Version | Previous Version | Graphics & Text | Print | Product List | Glossary On
Versions: 1 2 3 4 5 6 7 8 9 10 11 12 13 14 15 16 17 18 19 20 21 22 23 24 25 26 27 28 29 30 31 32 33 34 35 36 37 38 39 40 41 42 43 44 45 46 47 48 49 50
000
ASUS43 KLOT 030300
RWRIL

ILLINOIS REGIONAL WEATHER ROUNDUP
NATIONAL WEATHER SERVICE CHICAGO/ROMEOVILLE IL
900 PM CST MON MAR 02 2015

NOTE: "FAIR" INDICATES FEW OR NO CLOUDS BELOW 12,000 FEET WITH NO
SIGNIFICANT WEATHER AND/OR OBSTRUCTIONS TO VISIBILITY.

* THESE STATIONS ARE NOT UNDER NWS QUALITY CONTROL. THEY ALSO MAY NOT
  REPORT WEATHER SUCH AS PRECIPITATION OR FOG.

ILZ001-002-007-009-015-016-024-030400-
NORTHWEST ILLINOIS

CITY           SKY/WX    TMP DP  RH WIND       PRES   REMARKS
MOLINE         CLOUDY    27  18  69 SE8       30.26F WCI  19
STERLING*      CLOUDY    25  18  74 SE7       30.28F WCI  17
$$

ILZ003-004-008-010-011-017-018-030400-
NORTH CENTRAL ILLINOIS

CITY           SKY/WX    TMP DP  RH WIND       PRES   REMARKS
ROCKFORD       CLOUDY    24  16  71 S9        30.31F WCI  14
FREEPORT*      CLOUDY    24  18  77 SE7       30.30F WCI  16
DE KALB*       CLOUDY    22  16  77 S8        30.30F WCI  13
$$

ILZ005-006-012>014-019>023-030400-
NORTHEAST ILLINOIS

CITY           SKY/WX    TMP DP  RH WIND       PRES   REMARKS
CHICAGO-OHARE  CLOUDY    26  15  63 S9        30.31F WCI  17
CHICAGO-MIDWAY CLOUDY    28  15  58 S8        30.34F WCI  20
AURORA         CLOUDY    24  15  68 S7        30.31F WCI  16
LANSING*       CLOUDY    26  17  71 S7        30.36F WCI  18
WAUKEGAN       CLOUDY    26  20  77 S7        30.31F WCI  18
DUPAGE AIRPORT CLOUDY    25  15  66 S9        30.30F WCI  15
WHEELING       CLOUDY    27  15  61 SW8       30.33F WCI  19
NORTHERLY ISL    N/A     27  14  58 S12         N/A  WCI  17
$$

LMZ740>746-030400-
SOUTHERN LAKE MICHIGAN

STATION/POSITION SKY/WX   TEMP    WIND        PRES    VSBY  WAVE
                          AIR SEA DIR/SP/G                  HT/PER
                          (F)     (DEG/KT/KT) (MB)    (MI)  (FT/S)
WAUKEGAN HARBOR            28     200/ 22/ 37   N/A
HARRISON CRIB              28     200/ 13/ 15   N/A
BURNHAM HARBOR             27     200/ 11/ 13   N/A
CALUMET HARBOR             27     180/  7/ 11 1026.7
MICHIGAN CITY              27     160/  8/ 12   N/A
$$

ILZ025>027-034>036-040-047-049-050-058-095>099-030400-
WEST-CENTRAL ILLINOIS

CITY           SKY/WX    TMP DP  RH WIND       PRES   REMARKS
QUINCY         CLOUDY    29  19  66 SE9       30.24F WCI  20
MACOMB*        CLOUDY    27  21  80 SE10      30.28S WCI  17
$$

ILZ028>032-037-038-041>044-048-051>054-059>061-030400-
CENTRAL ILLINOIS

CITY           SKY/WX    TMP DP  RH WIND       PRES   REMARKS
DECATUR        CLOUDY    22  17  81 E9        30.28F WCI  12
PEORIA         CLOUDY    28  18  66 SE7       30.28F WCI  21
SPRINGFIELD    CLOUDY    28  18  66 SE9       30.29F WCI  19
TAYLORVILLE    NOT AVBL
$$

ILZ033-039-045-046-055>057-062-063-030400-
EAST-CENTRAL ILLINOIS

CITY           SKY/WX    TMP DP  RH WIND       PRES   REMARKS
CHAMPAIGN      CLOUDY    21  16  81 E9        30.30F WCI  11
MATTOON        CLOUDY    24  16  71 E6        30.29F WCI  17
$$

ILZ079-100>102-030400-
SOUTHWEST ILLINOIS

CITY           SKY/WX    TMP DP  RH WIND       PRES   REMARKS
ALTON          CLOUDY    30  16  55 E6        30.29F WCI  24
CAHOKIA*       CLOUDY    32  21  64 E7        30.28F WCI  26
$$

ILZ064>066-069>071-074>076-080>082-084>086-088>090-092>094-030400-
SOUTH-CENTRAL ILLINOIS

CITY           SKY/WX    TMP DP  RH WIND       PRES   REMARKS
CARBONDALE     CLOUDY    33  22  63 E7        30.29F WCI  27
MT. VERNON     MOCLDY    28  16  59 E6        30.30F WCI  22
$$

ILZ067-068-072-073-078-083-087-091-030400-
SOUTHEAST ILLINOIS

CITY           SKY/WX    TMP DP  RH WIND       PRES   REMARKS
LAWRENCEVILLE  CLOUDY    27  19  72 E5        30.34F WCI  22
$$

ABBREVIATIONS USED IN REMARKS
   TC - TEMPERATURE IN CELSIUS
  WCI - WIND CHILL INDEX
   HX - HEAT INDEX
  VSB - VISIBILITY
$$




USA.gov is the U.S. government's official web portal to all federal, state and local government web resources and services.